When you browse on this site, cookies collect data to enhance your experience and personalize the content and advertising you see.
Visit our Privacy Policy to learn more. By continuing to use the site, you agree to this use of cookies and data.
  • In Österreich
  • Länderverzeichnis
  • Für 7 Tage
  • Wassertemperatur
  • Satellitenkarten
  • Wetterkarte
  • News
  • Widgets
  • user-avatar
    Anmelden

    Stündliche Wetter Lezhe

    Heute, 21 November, Mittwoch

    Zeit Temperatur Niederschläge Wind Luftdruck Luftfeuchtigkeit
    00:00 +13°C° 2.9 mm 4 m/S 731 mmHg 92%
    01:00 +13°C° 0 mm 2 m/S 732 mmHg 94%
    02:00 +13°C° 3 mm 2 m/S 731 mmHg 95%
    03:00 +13°C° 3 mm 2 m/S 731 mmHg 95%
    04:00 +13°C° 3 mm 2 m/S 731 mmHg 95%
    05:00 +13°C° 0.7 mm 2 m/S 731 mmHg 94%
    06:00 +13°C° 0.7 mm 2 m/S 732 mmHg 93%
    07:00 +12°C° 0.7 mm 2 m/S 732 mmHg 92%
    08:00 +13°C° 0.3 mm 2 m/S 732 mmHg 90%
    09:00 +14°C° 0.3 mm 2 m/S 733 mmHg 88%
    10:00 +15°C° 0.3 mm 2 m/S 733 mmHg 86%
    11:00 +15°C° 0.3 mm 2 m/S 733 mmHg 83%
    12:00 +16°C° 0.3 mm 2 m/S 733 mmHg 79%
    13:00 +16°C° 0.3 mm 2 m/S 734 mmHg 76%
    14:00 +16°C° 0.3 mm 1 m/S 734 mmHg 80%
    15:00 +15°C° 0.3 mm 1 m/S 734 mmHg 83%
    16:00 +14°C° 0.3 mm 1 m/S 734 mmHg 87%
    17:00 +14°C° 0.2 mm 1 m/S 735 mmHg 89%
    18:00 +13°C° 0.2 mm 1 m/S 735 mmHg 90%
    19:00 +13°C° 0.2 mm 2 m/S 735 mmHg 92%
    20:00 +12°C° 0.1 mm 2 m/S 736 mmHg 92%
    21:00 +12°C° 0.1 mm 2 m/S 736 mmHg 92%
    22:00 +12°C° 0.1 mm 2 m/S 736 mmHg 92%
    23:00 +12°C° 0.1 mm 2 m/S 737 mmHg 91%

    Morgen, 22 November, Donnerstag

    Zeit Temperatur Niederschläge Wind Luftdruck Luftfeuchtigkeit
    00:00 +12°C° 0.1 mm 2 m/S 737 mmHg 91%
    01:00 +10°C° 0.1 mm 2 m/S 737 mmHg 91%
    02:00 +11°C° 0 mm 1 m/S 737 mmHg 90%
    03:00 +11°C° 0 mm 1 m/S 737 mmHg 90%
    04:00 +11°C° 0 mm 1 m/S 737 mmHg 90%
    05:00 +11°C° 0 mm 1 m/S 737 mmHg 90%
    06:00 +10°C° 0 mm 2 m/S 738 mmHg 89%
    07:00 +10°C° 0 mm 2 m/S 738 mmHg 89%
    08:00 +12°C° 0 mm 1 m/S 738 mmHg 84%
    09:00 +13°C° 0 mm 1 m/S 738 mmHg 79%
    10:00 +15°C° 0 mm 1 m/S 738 mmHg 74%
    11:00 +15°C° 0 mm 1 m/S 738 mmHg 72%
    12:00 +16°C° 0 mm 1 m/S 738 mmHg 70%
    13:00 +16°C° 0 mm 1 m/S 738 mmHg 68%
    14:00 +15°C° 0.1 mm 1 m/S 738 mmHg 72%
    15:00 +15°C° 0.1 mm 1 m/S 738 mmHg 76%
    16:00 +14°C° 0.1 mm 1 m/S 739 mmHg 80%
    17:00 +13°C° 0 mm 1 m/S 739 mmHg 82%
    18:00 +13°C° 0 mm 1 m/S 739 mmHg 84%
    19:00 +12°C° 0 mm 1 m/S 740 mmHg 86%
    20:00 +12°C° 0 mm 1 m/S 740 mmHg 86%
    21:00 +11°C° 0 mm 1 m/S 740 mmHg 86%
    22:00 +11°C° 0 mm 1 m/S 741 mmHg 85%
    23:00 +11°C° 0 mm 1 m/S 741 mmHg 85%

    übermorgen, 23 November, Freitag

    Zeit Temperatur Niederschläge Wind Luftdruck Luftfeuchtigkeit
    00:00 +11°C° 0 mm 1 m/S 741 mmHg 85%
    01:00 +11°C° 0 mm 1 m/S 741 mmHg 85%
    02:00 +10°C° 0 mm 1 m/S 741 mmHg 84%
    03:00 +10°C° 0 mm 1 m/S 741 mmHg 84%
    04:00 +10°C° 0 mm 1 m/S 741 mmHg 84%
    05:00 +10°C° 0 mm 1 m/S 742 mmHg 83%
    06:00 +10°C° 0 mm 1 m/S 742 mmHg 83%
    07:00 +10°C° 0 mm 1 m/S 742 mmHg 82%
    08:00 +11°C° 0 mm 1 m/S 743 mmHg 75%
    09:00 +13°C° 0 mm 1 m/S 743 mmHg 69%
    10:00 +15°C° 0 mm 1 m/S 743 mmHg 62%
    11:00 +16°C° 0 mm 1 m/S 743 mmHg 59%
    12:00 +16°C° 0 mm 1 m/S 742 mmHg 57%
    13:00 +18°C° 0 mm 1 m/S 742 mmHg 54%
    14:00 +16°C° 0 mm 1 m/S 742 mmHg 59%
    15:00 +15°C° 0 mm 1 m/S 742 mmHg 64%
    16:00 +14°C° 0 mm 1 m/S 742 mmHg 69%
    17:00 +13°C° 0 mm 1 m/S 742 mmHg 71%
    18:00 +12°C° 0 mm 1 m/S 742 mmHg 73%
    19:00 +12°C° 0 mm 1 m/S 743 mmHg 75%
    20:00 +11°C° 0 mm 1 m/S 743 mmHg 76%
    21:00 +10°C° 0 mm 2 m/S 743 mmHg 76%
    22:00 +10°C° 0 mm 2 m/S 743 mmHg 77%
    23:00 +10°C° 0 mm 2 m/S 743 mmHg 77%

    24 November, Samstag

    Zeit Temperatur Niederschläge Wind Luftdruck Luftfeuchtigkeit
    00:00 +10°C° 0 mm 2 m/S 742 mmHg 77%
    01:00 +9°C° 0 mm 2 m/S 742 mmHg 77%
    02:00 +10°C° 0 mm 2 m/S 742 mmHg 76%
    03:00 +10°C° 0 mm 2 m/S 742 mmHg 75%
    04:00 +10°C° 0 mm 2 m/S 741 mmHg 74%
    05:00 +10°C° 0 mm 2 m/S 741 mmHg 74%
    06:00 +10°C° 0 mm 2 m/S 741 mmHg 74%
    07:00 +10°C° 0 mm 2 m/S 741 mmHg 73%
    08:00 +12°C° 0 mm 2 m/S 741 mmHg 70%
    09:00 +13°C° 0 mm 2 m/S 741 mmHg 66%
    10:00 +14°C° 0 mm 2 m/S 741 mmHg 63%
    11:00 +15°C° 0 mm 2 m/S 740 mmHg 63%
    12:00 +14°C° 0 mm 3 m/S 740 mmHg 62%
    13:00 +16°C° 0 mm 3 m/S 739 mmHg 62%
    14:00 +14°C° 0.3 mm 3 m/S 739 mmHg 66%
    15:00 +13°C° 0.3 mm 3 m/S 739 mmHg 70%
    16:00 +14°C° 0.3 mm 2 m/S 739 mmHg 74%
    17:00 +12°C° 0.8 mm 3 m/S 739 mmHg 76%
    18:00 +12°C° 0.8 mm 3 m/S 738 mmHg 78%
    19:00 +12°C° 0.8 mm 3 m/S 738 mmHg 80%
    20:00 +12°C° 0.6 mm 3 m/S 738 mmHg 81%
    21:00 +12°C° 0.6 mm 3 m/S 738 mmHg 81%
    22:00 +12°C° 0.6 mm 3 m/S 738 mmHg 81%
    23:00 +12°C° 0.4 mm 3 m/S 738 mmHg 82%

    25 November, Sonntag

    Zeit Temperatur Niederschläge Wind Luftdruck Luftfeuchtigkeit
    00:00 +12°C° 0.4 mm 3 m/S 738 mmHg 83%
    01:00 +12°C° 0.4 mm 3 m/S 738 mmHg 85%
    02:00 +11°C° 0.3 mm 3 m/S 738 mmHg 85%
    03:00 +11°C° 0.3 mm 3 m/S 737 mmHg 86%
    04:00 +11°C° 0.3 mm 3 m/S 737 mmHg 86%
    05:00 +11°C° 0.2 mm 3 m/S 737 mmHg 86%
    06:00 +11°C° 0.2 mm 3 m/S 737 mmHg 86%
    07:00 +12°C° 0.2 mm 2 m/S 737 mmHg 86%
    08:00 +13°C° 0.4 mm 2 m/S 737 mmHg 84%
    09:00 +13°C° 0.4 mm 2 m/S 736 mmHg 82%
    10:00 +13°C° 0.4 mm 3 m/S 736 mmHg 81%
    11:00 +15°C° 0.2 mm 2 m/S 736 mmHg 77%
    12:00 +15°C° 0.2 mm 2 m/S 735 mmHg 74%
    13:00 +16°C° 0.2 mm 2 m/S 735 mmHg 70%
    14:00 +15°C° 0.5 mm 2 m/S 735 mmHg 75%
    15:00 +15°C° 0.5 mm 2 m/S 734 mmHg 80%
    16:00 +14°C° 0.5 mm 2 m/S 734 mmHg 85%
    17:00 +14°C° 0.6 mm 2 m/S 734 mmHg 86%
    18:00 +13°C° 0.6 mm 2 m/S 734 mmHg 87%
    19:00 +13°C° 0.6 mm 2 m/S 734 mmHg 89%
    20:00 +13°C° 0.4 mm 2 m/S 734 mmHg 88%
    21:00 +13°C° 0.4 mm 2 m/S 733 mmHg 88%
    22:00 +13°C° 0.4 mm 2 m/S 733 mmHg 88%
    23:00 +13°C° 0.5 mm 1 m/S 733 mmHg 88%

    26 November, Montag

    Zeit Temperatur Niederschläge Wind Luftdruck Luftfeuchtigkeit
    00:00 +13°C° 0.5 mm 1 m/S 732 mmHg 88%
    01:00 +12°C° 0.5 mm 1 m/S 732 mmHg 88%
    02:00 +12°C° 0.9 mm 1 m/S 731 mmHg 89%
    03:00 +12°C° 0.9 mm 1 m/S 731 mmHg 89%
    04:00 +12°C° 0.9 mm 1 m/S 731 mmHg 89%
    05:00 +12°C° 0.4 mm 1 m/S 730 mmHg 89%
    06:00 +12°C° 0.4 mm 1 m/S 730 mmHg 89%
    07:00 +12°C° 0.4 mm 1 m/S 730 mmHg 88%
    08:00 +12°C° 0.1 mm 1 m/S 730 mmHg 85%
    09:00 +13°C° 0.1 mm 1 m/S 731 mmHg 82%
    10:00 +13°C° 0.1 mm 0 m/S 731 mmHg 79%
    11:00 +14°C° 0 mm 1 m/S 731 mmHg 76%
    12:00 +15°C° 0 mm 1 m/S 730 mmHg 74%
    13:00 +15°C° 0 mm 1 m/S 730 mmHg 71%
    14:00 +14°C° 0 mm 1 m/S 730 mmHg 76%
    15:00 +14°C° 0 mm 1 m/S 730 mmHg 80%
    16:00 +13°C° 0 mm 1 m/S 730 mmHg 85%
    17:00 +12°C° 0 mm 2 m/S 731 mmHg 87%
    18:00 +12°C° 0 mm 2 m/S 731 mmHg 90%
    19:00 +10°C° 0 mm 2 m/S 731 mmHg 93%
    20:00 +10°C° 0.1 mm 2 m/S 731 mmHg 92%
    21:00 +9°C° 0.1 mm 2 m/S 732 mmHg 92%
    22:00 +9°C° 0.1 mm 2 m/S 732 mmHg 91%
    23:00 +9°C° 0.2 mm 3 m/S 732 mmHg 90%
    Mehr zeigen